SCP
7 8 8 9 11 12 13 14 15 16 15 13 11 9 7 6 6 6 6 6 5 5 4 4 5 6 5 3 3 3 2 2 2 2 1 1 1 1 2 2 1 1 1
6 7 8 10 12 14 15 14 14 15 15 14 12 9 7 6 5 5 5 5 5 4 4 4 5 6 5 3 3 2 2 2 2 2 1 1 1 1 1 1 1 1 1
6 6 8 12 15 16 15 14 14 13 13 12 11 9 7 6 5 5 5 5 5 4 4 4 4 5 4 3 2 2 2 2 2 2 1 1 1 1 1 0 0 0 0
5 5 8 13 17 17 15 13 13 11 10 9 8 7 7 6 6 5 5 5 5 5 4 4 4 3 3 3 3 2 2 2 2 2 1 1 1 1 0 0 0 0 0
5 6 9 14 16 15 13 12 12 10 8 6 6 6 6 7 6 5 4 4 5 5 4 4 4 4 3 3 3 3 2 2 2 2 1 1 0 0 0 0 0 0 0
6 7 10 14 14 12 10 10 9 8 6 6 6 6 6 6 5 4 4 4 4 5 5 4 5 5 4 4 3 3 2 2 2 1 1 1 0 0 0 0 0 0 0
7 7 9 11 10 8 8 7 7 6 5 6 6 6 5 5 4 4 5 4 4 4 4 4 4 5 4 3 3 2 2 1 1 1 1 1 0 0 0 0 0 0 0
6 6 6 7 7 7 6 5 4 4 4 5 5 5 5 4 4 5 5 3 2 2 2 2 2 2 2 2 1 1 1 1 1 1 1 1 1 0 0 0 0 0 0
5 5 4 5 5 5 5 4 4 4 4 4 4 4 4 4 4 4 3 2 1 0 0 0 0 0 0 0 0 0 0 0 0 0 0 0 0 0 0 0 0 0 0
4 3 2 3 3 3 4 3 3 3 4 3 3 4 4 4 3 2 1 1 0 0 0 0 0 0 0 0 0 0 0 0 0 0 0 0 0 0 0 0 0 0 0
2 2 1 1 1 1 2 2 2 3 3 3 3 3 3 3 2 1 1 0 0 0 0 0 0 0 0 0 0 0 0 0 0 0 0 0 0 0 0 0 0 0 0
1 1 1 0 0 0 0 1 1 2 2 3 3 2 2 1 1 0 0 0 0 0 0 0 0 0 0 0 0 0 0 0 0 0 0 0 0 0 0 0 0 0 0
1 1 0 0 0 0 0 0 1 1 2 2 1 1 0 0 0 0 0 0 0 0 0 0 0 0 0 0 0 0 0 0 0 0 0 0 0 0 0 0 0 0 0
1 1 0 0 0 0 0 0 0 0 1 1 0 0 0 0 0 0 0 0 0 0 0 0 0 0 0 0 0 0 0 0 0 0 0 0 0 0 0 0 0 0 0
0 0 0 0 0 0 0 0 0 0 0 0 0 0 0 0 0 0 0 0 0 0 0 0 0 0 0 0 0 0 0 0 0 0 0 0 0 0 0 0 0 0 0
0 0 0 0 0 0 0 0 0 0 0 0 0 0 0 0 0 0 0 0 0 0 0 0 0 0 0 0 0 0 0 0 0 0 0 0 0 0 0 0 0 0 0
0 0 0 0 0 0 0 0 0 0 0 0 0 0 0 0 0 0 0 0 0 0 0 0 0 0 0 0 0 0 0 0 0 0 0 0 0 0 0 0 0 0 0
0 0 0 0 0 0 0 0 0 0 0 0 0 0 0 0 0 0 0 0 0 0 0 0 0 0 0 0 0 0 0 0 0 0 0 0 0 0 0 0 0 0 0
0 0 0 0 0 0 0 0 0 0 0 0 0 0 0 0 0 0 0 0 0 0 0 0 0 0 0 0 0 0 0 0 0 0 0 0 0 0 0 0 0 0 0
0 0 0 0 0 0 0 0 0 0 0 0 0 0 0 0 0 0 0 0 0 0 0 0 0 0 0 0 0 0 0 0 0 0 0 0 0 0 0 0 0 0 0
0 0 0 0 0 0 0 0 0 0 0 0 0 0 0 0 0 0 0 0 0 0 0 0 0 0 0 0 0 0 0 0 0 0 0 0 0 0 0 0 0 0 0
0 0 0 0 0 0 0 0 0 0 0 0 0 0 0 0 0 0 0 0 0 0 0 0 0 0 0 0 0 0 0 0 0 0 0 0 0 0 0 0 0 0 0
0 0 0 0 0 0 0 0 0 0 0 0 0 0 0 0 0 0 0 0 0 0 0 0 0 0 0 0 0 0 0 0 0 0 0 0 0 0 0 0 0 0 0
0 0 0 0 0 0 0 0 0 0 0 0 0 0 0 0 0 0 0 0 0 0 0 0 0 0 0 0 0 0 0 0 0 0 0 0 0 0 0 0 0 0 0
0 0 0 0 0 0 0 0 0 0 0 0 0 0 0 0 0 0 0 0 0 0 0 0 0 0 0 0 0 0 0 0 0 0 0 0 0 0 0 0 0 0 0
0 0 0 0 0 0 0 0 0 0 0 0 0 0 0 0 0 0 0 0 0 0 0 0 0 0 0 0 0 0 0 0 0 0 0 0 0 0 0 0 0 0 0
Wind_Speed
7 8 8 7 7 6 6 5 4 4 3 2 3 3 2 2 2 2 2 1 1 2 3 3 3 3 3 3 4 3 3 2 2 2 2 3 4 4 4 4 4 5 6
7 8 7 7 7 6 5 4 3 3 2 2 2 3 3 3 3 3 3 3 2 0 2 2 2 3 3 4 4 3 2 2 2 2 3 2 2 2 4 4 4 5 5
7 6 7 7 7 7 6 4 4 3 3 3 3 4 3 3 3 3 2 4 3 2 2 3 2 3 3 3 4 3 3 2 2 1 1 2 3 3 2 4 4 4 4
7 6 7 7 7 7 6 6 5 5 4 4 4 5 4 4 3 3 3 5 5 5 5 4 4 4 4 4 4 4 3 3 2 2 2 2 2 3 3 2 2 4 4
8 8 7 8 9 8 8 7 6 6 6 5 5 5 5 5 5 5 6 6 6 7 7 6 6 5 5 5 5 5 4 3 3 2 2 2 2 2 3 3 3 2 3
10 9 10 10 10 9 9 8 8 8 7 7 7 8 8 8 8 7 6 5 5 6 8 8 7 6 5 6 6 6 7 6 6 4 4 2 2 1 2 3 3 3 2
10 9 10 10 10 10 9 9 9 8 8 9 9 9 9 9 9 7 7 6 6 6 8 7 7 6 6 6 7 7 7 7 6 5 3 3 3 2 2 3 2 3 2
10 11 11 11 10 10 10 9 9 9 9 9 9 9 9 7 7 8 7 7 6 6 7 7 8 7 7 7 7 7 7 6 6 6 5 4 3 3 3 2 2 2 3
11 11 11 11 11 11 10 10 10 10 10 10 10 10 10 10 10 9 9 7 6 7 8 8 8 8 7 7 7 7 7 6 6 5 5 4 3 3 3 3 2 1 2
11 11 11 11 10 10 10 11 11 11 10 10 10 10 10 10 10 9 10 9 8 8 8 8 8 7 7 7 7 7 6 7 6 5 6 5 4 3 3 3 3 3 2
10 10 10 10 10 10 10 10 11 11 10 10 10 11 9 9 10 10 9 8 8 8 8 7 7 7 7 6 6 7 6 6 6 5 6 6 5 4 4 3 3 4 4
10 10 10 10 10 10 10 10 9 10 10 10 10 10 9 9 9 9 8 7 7 7 7 6 6 7 6 5 6 7 6 6 6 5 5 5 5 5 5 4 4 3 3
10 10 10 9 9 9 9 9 9 9 10 10 10 9 9 9 9 8 7 7 7 7 6 6 6 6 6 6 6 6 6 6 5 5 5 5 6 6 4 4 4 3 3
9 9 9 9 9 9 9 9 9 9 9 9 9 9 8 7 7 7 7 7 6 6 6 6 6 6 7 7 6 5 5 5 5 5 6 6 7 6 5 4 5 4 4
10 10 10 9 9 9 9 8 8 8 8 9 9 8 7 7 7 6 6 5 5 6 5 5 6 7 7 8 7 4 5 4 4 5 5 6 6 6 4 5 4 5 4
11 10 10 9 9 8 8 8 7 7 7 8 8 7 6 7 7 6 5 5 5 5 5 6 7 8 7 9 11 8 4 3 3 4 4 5 4 3 1 1 2 3 3
11 10 9 8 8 8 7 7 7 6 7 7 7 6 6 6 6 6 5 4 4 4 5 6 7 8 7 10 11 11 5 2 3 3 3 4 6 5 4 2 3 3 4
12 10 9 9 8 8 7 6 6 6 6 7 6 6 5 5 5 5 5 4 4 4 4 6 6 6 7 9 10 12 4 1 2 3 4 5 6 7 6 5 4 2 1
11 9 9 9 8 8 7 7 6 6 6 6 5 5 4 4 4 5 4 4 3 3 4 5 6 6 5 7 9 10 4 1 3 5 6 6 6 6 8 5 5 5 4
10 9 9 9 8 7 6 6 6 6 6 5 5 5 4 4 5 4 3 3 3 3 4 5 5 6 5 5 8 9 4 2 3 5 6 8 6 5 7 5 4 4 5
11 10 9 8 7 6 6 6 6 6 5 5 5 5 5 5 4 3 2 2 3 3 4 5 5 5 5 3 5 8 5 5 3 2 3 3 3 3 4 4 2 3 5
11 10 8 8 6 6 6 6 6 5 5 5 5 4 3 4 5 3 2 3 2 3 3 4 4 4 4 3 3 4 5 5 4 3 3 2 0 2 4 4 5 8 8
10 9 9 8 6 6 6 6 5 4 5 4 4 3 4 4 3 2 2 2 1 2 2 3 3 3 3 2 1 2 3 4 3 2 2 2 4 5 5 6 8 7 4
11 10 10 9 7 6 7 6 5 4 4 4 4 3 3 3 3 2 3 4 4 3 3 3 3 3 4 3 2 2 1 1 1 2 3 5 7 7 7 5 4 4 2
10 9 9 8 8 7 7 6 5 4 4 4 3 3 3 4 4 6 6 6 6 6 5 5 4 4 5 3 4 4 4 5 5 6 4 2 1 1 1 1 1 1 1
10 9 9 9 9 8 6 5 4 4 3 3 3 3 3 3 3 5 6 9 7 7 9 8 6 5 5 2 2 4 5 6 7 5 3 2 2 2 2 2 2 2 3
Wind_Direction
83 70 61 56 56 53 55 63 69 80 91 124 148 149 142 117 102 83 57 77 141 191 190 183 182 185 175 156 142 132 133 125 113 106 95 63 52 55 58 65 77 80 81
76 72 68 60 56 50 54 64 71 76 87 112 129 137 130 117 101 75 57 50 61 77 192 157 159 155 142 136 138 138 138 130 136 139 134 134 98 53 53 55 64 72 78
80 63 60 57 52 46 42 40 54 71 76 86 97 103 97 91 83 75 57 48 53 61 72 95 107 110 112 111 110 118 128 140 141 100 131 150 150 117 66 60 60 63 67
88 71 65 61 52 49 48 49 55 61 64 82 105 112 114 108 94 84 75 60 48 46 51 62 75 84 86 92 96 85 96 128 145 126 86 82 108 136 130 97 78 78 72
83 73 67 64 55 49 50 49 54 61 59 66 87 95 92 91 84 79 74 62 51 45 45 46 54 61 71 81 81 83 79 80 81 98 99 89 85 92 133 140 139 108 92
78 69 69 62 53 47 48 48 51 57 58 63 71 83 90 92 89 81 78 68 56 49 47 51 53 55 61 69 76 80 78 74 68 63 58 66 86 88 103 128 147 137 119
80 70 65 62 55 47 47 48 55 60 62 67 67 73 84 88 85 83 77 73 62 54 49 53 57 57 60 68 74 76 74 72 74 70 62 55 53 52 65 108 128 131 137
79 71 64 61 56 51 48 52 59 63 64 67 71 71 75 79 79 76 76 72 70 67 60 60 61 61 65 71 74 78 74 73 73 69 60 62 47 40 44 71 105 137 150
80 74 67 64 59 55 53 57 63 67 68 70 74 73 72 76 79 78 75 72 69 72 65 66 64 62 61 66 72 73 68 66 65 63 55 57 56 42 36 45 57 66 128
82 75 68 65 64 63 63 63 66 68 70 71 73 76 74 76 79 79 77 73 70 69 67 65 66 65 63 62 71 78 75 76 69 68 57 46 37 36 35 38 34 27 54
91 84 78 71 70 70 70 71 71 73 73 74 76 78 76 78 80 80 79 78 75 72 71 69 67 66 65 65 71 78 74 75 71 70 68 59 44 29 29 30 40 37 44
97 91 85 79 74 71 72 75 78 80 84 85 82 81 81 80 82 82 82 83 81 78 74 73 72 72 68 63 69 79 76 74 72 68 66 62 58 44 33 25 43 48 45
103 98 90 84 80 78 76 77 78 82 86 87 88 85 84 85 85 85 84 82 79 75 71 70 71 70 66 61 62 69 73 73 72 71 69 64 57 46 32 32 31 22 39
109 103 96 90 87 84 82 82 80 84 88 88 89 89 87 87 89 89 86 84 84 83 79 75 73 72 63 53 49 67 74 75 75 73 69 63 57 41 11 38 29 21 11
110 105 101 99 97 93 89 87 86 87 90 93 91 90 91 90 89 87 87 89 91 92 88 83 74 72 62 41 29 39 84 83 85 85 86 83 82 67 35 42 25 16 9
119 113 111 111 107 104 104 103 101 102 105 104 102 102 99 95 91 89 85 84 81 85 87 82 75 67 57 37 31 28 29 57 76 84 98 125 121 121 121 46 16 11 19
127 124 120 117 114 110 106 105 108 110 106 105 105 103 99 99 103 107 102 98 93 90 93 92 88 81 53 33 24 15 354 38 66 65 49 80 82 51 30 349 254 249 236
130 128 125 121 118 116 115 111 106 102 101 100 98 98 105 107 107 105 103 97 94 93 95 100 98 91 60 32 18 356 334 56 92 85 79 77 68 40 13 342 350 354 194
128 125 125 125 125 122 121 115 106 105 102 101 104 104 99 99 102 101 106 108 113 114 111 111 110 100 75 34 19 1 326 66 81 78 62 73 79 39 10 357 7 18 12
125 126 128 129 124 124 125 121 120 114 109 110 111 108 106 101 97 100 110 121 130 122 116 113 109 107 94 47 25 5 352 46 72 97 93 70 66 41 18 7 12 12 353
134 134 133 129 127 134 135 128 117 113 112 109 110 112 109 108 100 93 93 108 104 97 100 108 109 105 104 86 38 27 22 16 33 85 94 84 58 32 7 350 345 336 312
139 137 133 129 130 137 133 121 114 115 112 108 104 99 101 103 102 101 95 92 105 114 117 124 122 121 122 92 71 37 34 10 23 53 77 103 314 322 316 314 314 321 318
139 137 132 129 128 131 130 124 121 117 108 103 100 95 86 82 96 111 122 129 131 115 117 116 119 127 125 115 77 332 344 359 4 21 352 283 265 288 279 261 283 305 308
139 138 137 135 133 132 125 123 124 120 113 111 112 113 107 101 83 58 58 60 49 51 70 83 97 104 92 67 34 354 344 325 347 325 286 263 262 263 281 284 258 254 277
139 141 140 137 135 133 130 131 126 119 119 124 121 113 107 99 84 71 50 62 54 49 48 43 60 72 77 54 27 15 17 9 12 334 301 275 289 287 280 315 311 298 357
142 143 140 138 136 135 133 131 131 128 129 129 127 121 120 118 124 121 97 62 83 82 74 63 62 78 88 110 31 10 348 340 346 334 311 345 358 351 354 348 349 11 39